Tracking 29892 objects as of 21-Nov-2024
HD Live streaming from Space Station
objects crossing your sky now

BEIDOU G6

Track BEIDOU G6 now!
BEIDOU G6 is classified as:


NORAD ID: 38953
Int'l Code: 2012-059A
Perigee: 35,763.8 km
Apogee: 35,822.3 km
Inclination: 3.0 °
Period: 1,436.1 minutes
Semi major axis: 42164 km
RCS: 8.3985 m2 (large)
Launch date: October 25, 2012
Source: People's Republic of China (PRC)
Launch site: Xichang Space Center, China (XSC)

BEIDOU G6 it the 16th satellite part of China's Beidou navigation system.
Your satellite tracking list
Your tracking list is empty




NASA's NSSDC Master Catalog

Two Line Element Set (TLE):
1 38953U 12059A   24325.95517947 -.00000173  00000-0  00000+0 0  9999
2 38953   2.9604  79.2129 0006940 289.6832 119.4131  1.00274297 44301
Source of the keplerian elements: AFSPC